| time (UTC) | temp C | wind direction | speed KPH | gust KPH | rain 1hr cm | rain 24hr cm | rain mn cm | humidity % | barometer mb |
| 20260510054813 | 8 | 193 | 3.2 | 3.2 | 0.00 | 0.00 | 0.00 | 91 | 976.9 |
| 20260510054309 | 8 | 194 | 3.2 | 3.2 | 0.00 | 0.00 | 0.00 | 89 | 977.1 |
| 20260510053810 | 8 | 190 | 0.0 | 0.0 | 0.00 | 0.00 | 0.00 | 89 | 977.1 |
| 20260510053305 | 9 | 190 | 3.2 | 3.2 | 0.00 | 0.00 | 0.00 | 86 | 977.0 |
| 20260510052801 | 10 | 171 | 4.8 | 4.8 | 0.00 | 0.00 | 0.00 | 83 | 976.9 |
| 20260510052257 | 10 | 44 | 0.0 | 0.0 | 0.00 | 0.00 | 0.00 | 81 | 977.2 |
| 20260510051754 | 10 | 197 | 3.2 | 3.2 | 0.00 | 0.00 | 0.00 | 81 | 977.2 |
| 20260510051250 | 10 | 54 | 1.6 | 1.6 | 0.00 | 0.00 | 0.00 | 82 | 977.2 |
| 20260510050747 | 9 | 356 | 1.6 | 1.6 | 0.00 | 0.00 | 0.00 | 82 | 977.2 |
| 20260510050244 | 9 | 174 | 1.6 | 3.2 | 0.00 | 0.00 | 0.00 | 85 | 977.2 |
| 20260510045741 | 9 | 185 | 3.2 | 3.2 | 0.00 | 0.00 | 0.00 | 85 | 977.2 |
| 20260510045238 | 8 | 255 | 0.0 | 0.0 | 0.00 | 0.00 | 0.00 | 86 | 977.2 |
| 20260510044734 | 8 | 254 | 1.6 | 1.6 | 0.00 | 0.00 | 0.00 | 87 | 977.4 |
| 20260510044232 | 8 | 255 | 0.0 | 0.0 | 0.00 | 0.00 | 0.00 | 87 | 977.1 |
| 20260510043727 | 8 | 8 | 0.0 | 0.0 | 0.00 | 0.00 | 0.00 | 87 | 977.4 |
| 20260510043225 | 8 | 8 | 0.0 | 0.0 | 0.00 | 0.00 | 0.00 | 87 | 977.3 |
| 20260510042722 | 8 | 7 | 0.0 | 0.0 | 0.00 | 0.00 | 0.00 | 86 | 977.1 |
| 20260510042217 | 8 | 39 | 0.0 | 1.6 | 0.00 | 0.00 | 0.00 | 84 | 977.3 |
| 20260510041715 | 10 | 185 | 3.2 | 3.2 | 0.00 | 0.00 | 0.00 | 82 | 977.3 |
| 20260510041212 | 10 | 191 | 1.6 | 3.2 | 0.00 | 0.00 | 0.00 | 81 | 977.3 |
| 20260510040709 | 10 | 181 | 4.8 | 4.8 | 0.00 | 0.00 | 0.00 | 82 | 977.1 |
| 20260510040206 | 10 | 176 | 1.6 | 1.6 | 0.00 | 0.00 | 0.00 | 81 | 977.2 |
| 20260510035701 | 10 | 345 | 0.0 | 1.6 | 0.00 | 0.00 | 0.00 | 81 | 977.1 |
| 20260510035157 | 10 | 5 | 0.0 | 1.6 | 0.00 | 0.00 | 0.00 | 80 | 977.2 |
| 20260510034653 | 10 | 4 | 0.0 | 0.0 | 0.00 | 0.00 | 0.00 | 79 | 977.3 |
| 20260510034150 | 11 | 40 | 0.0 | 0.0 | 0.00 | 0.00 | 0.00 | 77 | 977.3 |
| 20260510033646 | 11 | 101 | 3.2 | 4.8 | 0.00 | 0.00 | 0.00 | 76 | 977.3 |
| 20260510033145 | 11 | 30 | 1.6 | 1.6 | 0.00 | 0.00 | 0.00 | 74 | 977.3 |
| 20260510032641 | 11 | 254 | 1.6 | 3.2 | 0.00 | 0.00 | 0.00 | 73 | 977.2 |
| 20260510032136 | 11 | 181 | 0.0 | 0.0 | 0.00 | 0.00 | 0.00 | 77 | 977.3 |
| 20260510031631 | 11 | 185 | 4.8 | 4.8 | 0.00 | 0.00 | 0.00 | 76 | 977.1 |
| 20260510031129 | 11 | 171 | 3.2 | 4.8 | 0.00 | 0.00 | 0.00 | 76 | 977.0 |
| 20260510030623 | 11 | 177 | 6.4 | 6.4 | 0.00 | 0.00 | 0.00 | 77 | 977.1 |
| 20260510030121 | 11 | 70 | 1.6 | 1.6 | 0.00 | 0.00 | 0.00 | 77 | 977.0 |
| 20260510025618 | 11 | 174 | 6.4 | 6.4 | 0.00 | 0.00 | 0.00 | 76 | 977.1 |
| 20260510025115 | 11 | 176 | 6.4 | 6.4 | 0.00 | 0.00 | 0.00 | 77 | 976.8 |
| 20260510024612 | 11 | 112 | 1.6 | 1.6 | 0.00 | 0.00 | 0.00 | 76 | 976.9 |
| 20260510024108 | 11 | 171 | 4.8 | 4.8 | 0.00 | 0.00 | 0.00 | 74 | 976.7 |
| 20260510023604 | 11 | 149 | 1.6 | 1.6 | 0.00 | 0.00 | 0.00 | 74 | 976.8 |
| 20260510023102 | 11 | 174 | 6.4 | 6.4 | 0.00 | 0.00 | 0.00 | 73 | 976.7 |
| 20260510022601 | 12 | 183 | 3.2 | 3.2 | 0.00 | 0.00 | 0.00 | 73 | 976.7 |
| 20260510022056 | 12 | 176 | 3.2 | 4.8 | 0.00 | 0.00 | 0.00 | 72 | 976.7 |
| 20260510021552 | 12 | 175 | 4.8 | 4.8 | 0.00 | 0.00 | 0.00 | 71 | 976.5 |
| 20260510021050 | 12 | 180 | 4.8 | 4.8 | 0.00 | 0.00 | 0.00 | 71 | 976.5 |
| 20260510020550 | 12 | 173 | 1.6 | 1.6 | 0.00 | 0.00 | 0.00 | 71 | 976.4 |
| 20260510020046 | 12 | 172 | 1.6 | 1.6 | 0.00 | 0.00 | 0.00 | 71 | 976.3 |
| 20260510015542 | 12 | 185 | 3.2 | 4.8 | 0.00 | 0.00 | 0.00 | 70 | 976.3 |
| 20260510015038 | 12 | 170 | 1.6 | 1.6 | 0.00 | 0.00 | 0.00 | 71 | 976.2 |
| 20260510014534 | 12 | 184 | 3.2 | 3.2 | 0.00 | 0.00 | 0.00 | 70 | 976.2 |
| 20260510014032 | 12 | 173 | 4.8 | 6.4 | 0.00 | 0.00 | 0.00 | 67 | 976.1 |
| 20260510013532 | 12 | 105 | 4.8 | 4.8 | 0.00 | 0.00 | 0.00 | 71 | 975.9 |
| 20260510013028 | 12 | 178 | 3.2 | 3.2 | 0.00 | 0.00 | 0.00 | 70 | 975.8 |
| 20260510012528 | 13 | 184 | 1.6 | 3.2 | 0.00 | 0.00 | 0.00 | 67 | 975.6 |
| 20260510012025 | 13 | 167 | 1.6 | 1.6 | 0.00 | 0.00 | 0.00 | 65 | 975.7 |
| 20260510011524 | 13 | 184 | 4.8 | 4.8 | 0.00 | 0.00 | 0.00 | 65 | 975.4 |
| 20260510011020 | 13 | 172 | 4.8 | 4.8 | 0.00 | 0.00 | 0.00 | 64 | 975.6 |
| 20260510010517 | 13 | 171 | 4.8 | 4.8 | 0.00 | 0.00 | 0.00 | 65 | 975.4 |
| 20260510010014 | 13 | 179 | 1.6 | 3.2 | 0.00 | 0.00 | 0.00 | 67 | 975.5 |
| 20260510005510 | 13 | 159 | 1.6 | 3.2 | 0.00 | 0.00 | 0.00 | 66 | 975.2 |
| 20260510005008 | 14 | 174 | 6.4 | 6.4 | 0.00 | 0.00 | 0.00 | 65 | 975.3 |
| 20260510004505 | 14 | 179 | 1.6 | 3.2 | 0.00 | 0.00 | 0.00 | 65 | 975.2 |
| 20260510004003 | 14 | 106 | 1.6 | 1.6 | 0.00 | 0.00 | 0.00 | 65 | 975.0 |
| 20260510003459 | 15 | 171 | 0.0 | 1.6 | 0.00 | 0.00 | 0.00 | 64 | 975.0 |
| 20260510002954 | 15 | 176 | 6.4 | 6.4 | 0.00 | 0.00 | 0.00 | 62 | 974.6 |
| 20260510002450 | 16 | 182 | 4.8 | 4.8 | 0.00 | 0.00 | 0.00 | 58 | 974.5 |
| 20260510001947 | 16 | 183 | 1.6 | 3.2 | 0.00 | 0.00 | 0.00 | 58 | 974.6 |
| 20260510001444 | 16 | 197 | 1.6 | 3.2 | 0.00 | 0.00 | 0.00 | 52 | 974.4 |
| 20260510000942 | 18 | 108 | 1.6 | 1.6 | 0.00 | 0.00 | 0.00 | 46 | 974.5 |
| 20260510000440 | 17 | 103 | 0.0 | 1.6 | 0.00 | 0.00 | 0.00 | 48 | 974.3 |
| 20260509235935 | 18 | 162 | 0.0 | 0.0 | 0.00 | 0.00 | 0.00 | 47 | 974.3 |
| 20260509235432 | 19 | 76 | 1.6 | 1.6 | 0.00 | 0.00 | 0.00 | 44 | 974.3 |
| 20260509234928 | 20 | 178 | 1.6 | 3.2 | 0.00 | 0.00 | 0.00 | 40 | 974.2 |
| 20260509234425 | 20 | 191 | 3.2 | 4.8 | 0.00 | 0.00 | 0.00 | 40 | 974.0 |
| 20260509233923 | 20 | 182 | 3.2 | 3.2 | 0.00 | 0.00 | 0.00 | 40 | 974.1 |
| 20260509233420 | 20 | 192 | 0.0 | 0.0 | 0.00 | 0.00 | 0.00 | 39 | 974.4 |
| 20260509232916 | 21 | 181 | 8.0 | 9.7 | 0.00 | 0.00 | 0.00 | 38 | 974.1 |
| 20260509232414 | 20 | 176 | 4.8 | 6.4 | 0.00 | 0.00 | 0.00 | 39 | 974.1 |
| 20260509231909 | 21 | 180 | 3.2 | 4.8 | 0.00 | 0.00 | 0.00 | 42 | 974.2 |
| 20260509231406 | 21 | 233 | 1.6 | 1.6 | 0.00 | 0.00 | 0.00 | 39 | 974.1 |
| 20260509230905 | 21 | 184 | 3.2 | 4.8 | 0.00 | 0.00 | 0.00 | 38 | 974.1 |
| 20260509230401 | 21 | 45 | 1.6 | 3.2 | 0.00 | 0.00 | 0.00 | 37 | 974.2 |
| 20260509225857 | 22 | 120 | 1.6 | 1.6 | 0.00 | 0.00 | 0.00 | 37 | 974.0 |
| 20260509225354 | 22 | 179 | 11.3 | 12.9 | 0.00 | 0.00 | 0.00 | 35 | 973.9 |
| 20260509224849 | 22 | 179 | 6.4 | 11.3 | 0.00 | 0.00 | 0.00 | 36 | 973.9 |
| 20260509224345 | 22 | 178 | 11.3 | 12.9 | 0.00 | 0.00 | 0.00 | 36 | 973.9 |
| 20260509223843 | 22 | 194 | 0.0 | 0.0 | 0.00 | 0.00 | 0.00 | 39 | 973.8 |
| 20260509223339 | 22 | 183 | 4.8 | 4.8 | 0.00 | 0.00 | 0.00 | 37 | 974.0 |
| 20260509222836 | 22 | 33 | 0.0 | 1.6 | 0.00 | 0.00 | 0.00 | 35 | 974.1 |
| 20260509222331 | 22 | 189 | 1.6 | 3.2 | 0.00 | 0.00 | 0.00 | 35 | 973.9 |
| 20260509221827 | 22 | 168 | 4.8 | 6.4 | 0.00 | 0.00 | 0.00 | 36 | 974.0 |
| 20260509221325 | 22 | 212 | 3.2 | 4.8 | 0.00 | 0.00 | 0.00 | 36 | 974.0 |
| 20260509220825 | 22 | 188 | 3.2 | 6.4 | 0.00 | 0.00 | 0.00 | 39 | 974.0 |
| 20260509220321 | 22 | 58 | 0.0 | 1.6 | 0.00 | 0.00 | 0.00 | 38 | 973.8 |
| 20260509215817 | 22 | 60 | 4.8 | 6.4 | 0.00 | 0.00 | 0.00 | 39 | 973.7 |
| 20260509215314 | 22 | 82 | 3.2 | 4.8 | 0.00 | 0.00 | 0.00 | 38 | 973.9 |
| 20260509214811 | 22 | 19 | 3.2 | 4.8 | 0.00 | 0.00 | 0.00 | 38 | 973.8 |
| 20260509214308 | 22 | 195 | 4.8 | 6.4 | 0.00 | 0.00 | 0.00 | 36 | 973.9 |
| 20260509213805 | 22 | 66 | 3.2 | 4.8 | 0.00 | 0.00 | 0.00 | 38 | 973.9 |
| 20260509213300 | 22 | 42 | 3.2 | 4.8 | 0.00 | 0.00 | 0.00 | 39 | 973.7 |
| 20260509212758 | 22 | 37 | 3.2 | 3.2 | 0.00 | 0.00 | 0.00 | 39 | 973.8 |
| 20260509212255 | 23 | 37 | 1.6 | 1.6 | 0.00 | 0.00 | 0.00 | 39 | 973.5 |
| 20260509211750 | 22 | 70 | 0.0 | 0.0 | 0.00 | 0.00 | 0.00 | 36 | 973.5 |
| 20260509211247 | 22 | 67 | 3.2 | 4.8 | 0.00 | 0.00 | 0.00 | 37 | 973.6 |
| 20260509210743 | 22 | 82 | 3.2 | 4.8 | 0.00 | 0.00 | 0.00 | 38 | 973.5 |
| 20260509210242 | 22 | 332 | 1.6 | 1.6 | 0.00 | 0.00 | 0.00 | 36 | 973.4 |
| 20260509205741 | 22 | 101 | 4.8 | 6.4 | 0.00 | 0.00 | 0.00 | 38 | 973.5 |
| 20260509205236 | 22 | 80 | 1.6 | 4.8 | 0.00 | 0.00 | 0.00 | 38 | 973.4 |
| 20260509204732 | 22 | 86 | 4.8 | 4.8 | 0.00 | 0.00 | 0.00 | 36 | 973.5 |
| 20260509204229 | 21 | 35 | 6.4 | 12.9 | 0.00 | 0.00 | 0.00 | 35 | 973.5 |
| 20260509203724 | 21 | 176 | 6.4 | 6.4 | 0.00 | 0.00 | 0.00 | 37 | 973.4 |
| 20260509203223 | 21 | 74 | 3.2 | 3.2 | 0.00 | 0.00 | 0.00 | 36 | 973.4 |
| 20260509202718 | 21 | 62 | 3.2 | 4.8 | 0.00 | 0.00 | 0.00 | 36 | 973.3 |
| 20260509202214 | 21 | 62 | 3.2 | 3.2 | 0.00 | 0.00 | 0.00 | 36 | 973.3 |
| 20260509201709 | 21 | 75 | 6.4 | 9.7 | 0.00 | 0.00 | 0.00 | 35 | 973.2 |
| 20260509201206 | 22 | 199 | 3.2 | 3.2 | 0.00 | 0.00 | 0.00 | 39 | 973.4 |
| 20260509200702 | 24 | 87 | 4.8 | 4.8 | 0.00 | 0.00 | 0.00 | 34 | 973.2 |
| 20260509200157 | 23 | 202 | 3.2 | 3.2 | 0.00 | 0.00 | 0.00 | 33 | 973.0 |
| 20260509195653 | 22 | 30 | 3.2 | 4.8 | 0.00 | 0.00 | 0.00 | 36 | 973.1 |
| 20260509195149 | 22 | 178 | 8.0 | 12.9 | 0.00 | 0.00 | 0.00 | 38 | 973.4 |
| 20260509194648 | 22 | 37 | 6.4 | 9.7 | 0.00 | 0.00 | 0.00 | 38 | 973.4 |
| 20260509194146 | 22 | 57 | 6.4 | 11.3 | 0.00 | 0.00 | 0.00 | 37 | 973.3 |
| 20260509193642 | 23 | 91 | 6.4 | 6.4 | 0.00 | 0.00 | 0.00 | 35 | 973.3 |
| 20260509193137 | 23 | 141 | 4.8 | 6.4 | 0.00 | 0.00 | 0.00 | 36 | 973.4 |
| 20260509192634 | 23 | 31 | 11.3 | 14.5 | 0.00 | 0.00 | 0.00 | 35 | 973.7 |
| 20260509192130 | 22 | 28 | 9.7 | 12.9 | 0.00 | 0.00 | 0.00 | 38 | 973.5 |
| 20260509191629 | 21 | 57 | 6.4 | 6.4 | 0.00 | 0.00 | 0.00 | 40 | 973.6 |
| 20260509191126 | 21 | 65 | 4.8 | 4.8 | 0.00 | 0.00 | 0.00 | 41 | 973.8 |
| 20260509190623 | 21 | 40 | 1.6 | 3.2 | 0.00 | 0.00 | 0.00 | 42 | 973.8 |
| 20260509190120 | 21 | 54 | 1.6 | 3.2 | 0.00 | 0.00 | 0.00 | 44 | 973.8 |
| 20260509185618 | 21 | 57 | 6.4 | 6.4 | 0.00 | 0.00 | 0.00 | 42 | 973.9 |
| 20260509185114 | 21 | 31 | 6.4 | 11.3 | 0.00 | 0.00 | 0.00 | 45 | 973.9 |
| 20260509184612 | 21 | 74 | 3.2 | 4.8 | 0.00 | 0.00 | 0.00 | 39 | 973.8 |
| 20260509184108 | 22 | 29 | 4.8 | 9.7 | 0.00 | 0.00 | 0.00 | 41 | 973.8 |
| 20260509183604 | 22 | 21 | 6.4 | 11.3 | 0.00 | 0.00 | 0.00 | 41 | 973.7 |
| 20260509183100 | 22 | 7 | 11.3 | 16.1 | 0.00 | 0.00 | 0.00 | 43 | 973.8 |
| 20260509182556 | 21 | 22 | 4.8 | 6.4 | 0.00 | 0.00 | 0.00 | 43 | 974.0 |
| 20260509182053 | 21 | 15 | 6.4 | 6.4 | 0.00 | 0.00 | 0.00 | 46 | 974.1 |
| 20260509181552 | 21 | 50 | 6.4 | 6.4 | 0.00 | 0.00 | 0.00 | 45 | 974.3 |
| 20260509181048 | 21 | 15 | 9.7 | 16.1 | 0.00 | 0.00 | 0.00 | 45 | 974.3 |
| 20260509180544 | 21 | 37 | 11.3 | 12.9 | 0.00 | 0.00 | 0.00 | 46 | 974.3 |
| 20260509180042 | 21 | 49 | 6.4 | 6.4 | 0.00 | 0.00 | 0.00 | 46 | 974.3 |
| 20260509175537 | 20 | 12 | 6.4 | 6.4 | 0.00 | 0.00 | 0.00 | 47 | 974.4 |
| 20260509175034 | 20 | 42 | 3.2 | 4.8 | 0.00 | 0.00 | 0.00 | 47 | 974.7 |
| 20260509174531 | 20 | 26 | 3.2 | 3.2 | 0.00 | 0.00 | 0.00 | 47 | 974.6 |
| 20260509174026 | 20 | 35 | 3.2 | 3.2 | 0.00 | 0.00 | 0.00 | 48 | 974.6 |
| 20260509173520 | 20 | 63 | 0.0 | 1.6 | 0.00 | 0.00 | 0.00 | 51 | 974.8 |
| 20260509173017 | 20 | 55 | 6.4 | 6.4 | 0.00 | 0.00 | 0.00 | 48 | 974.8 |
| 20260509172514 | 20 | 45 | 4.8 | 6.4 | 0.00 | 0.00 | 0.00 | 52 | 975.0 |
| 20260509172010 | 19 | 28 | 4.8 | 6.4 | 0.00 | 0.00 | 0.00 | 51 | 975.1 |
| 20260509171506 | 19 | 55 | 6.4 | 9.7 | 0.00 | 0.00 | 0.00 | 50 | 975.0 |
| 20260509171003 | 19 | 38 | 6.4 | 6.4 | 0.00 | 0.00 | 0.00 | 51 | 975.0 |
| 20260509170458 | 19 | 38 | 4.8 | 6.4 | 0.00 | 0.00 | 0.00 | 52 | 975.1 |
| 20260509165954 | 19 | 21 | 3.2 | 4.8 | 0.00 | 0.00 | 0.00 | 52 | 975.2 |
| 20260509165453 | 19 | 43 | 6.4 | 9.7 | 0.00 | 0.00 | 0.00 | 52 | 975.1 |
| 20260509164949 | 19 | 49 | 0.0 | 1.6 | 0.00 | 0.00 | 0.00 | 54 | 975.0 |
| 20260509164445 | 20 | 328 | 3.2 | 4.8 | 0.00 | 0.00 | 0.00 | 51 | 975.2 |
| 20260509163941 | 19 | 69 | 1.6 | 3.2 | 0.00 | 0.00 | 0.00 | 50 | 975.2 |
| 20260509163439 | 19 | 19 | 1.6 | 1.6 | 0.00 | 0.00 | 0.00 | 52 | 975.3 |
| 20260509162937 | 19 | 93 | 3.2 | 4.8 | 0.00 | 0.00 | 0.00 | 53 | 975.2 |
| 20260509162437 | 20 | 57 | 1.6 | 1.6 | 0.00 | 0.00 | 0.00 | 50 | 975.1 |
| 20260509161932 | 20 | 22 | 1.6 | 1.6 | 0.00 | 0.00 | 0.00 | 49 | 975.3 |
| 20260509161429 | 20 | 18 | 6.4 | 6.4 | 0.00 | 0.00 | 0.00 | 51 | 975.1 |
| 20260509160924 | 20 | 49 | 4.8 | 6.4 | 0.00 | 0.00 | 0.00 | 52 | 975.1 |
| 20260509160420 | 19 | 12 | 8.0 | 11.3 | 0.00 | 0.00 | 0.00 | 51 | 975.1 |
| 20260509155915 | 18 | 37 | 6.4 | 6.4 | 0.00 | 0.00 | 0.00 | 52 | 975.1 |
| 20260509155412 | 19 | 32 | 6.4 | 6.4 | 0.00 | 0.00 | 0.00 | 57 | 975.4 |
| 20260509154909 | 18 | 10 | 16.1 | 17.7 | 0.00 | 0.00 | 0.00 | 57 | 975.1 |
| 20260509154405 | 18 | 19 | 11.3 | 12.9 | 0.00 | 0.00 | 0.00 | 56 | 975.1 |
| 20260509153902 | 18 | 8 | 14.5 | 16.1 | 0.00 | 0.00 | 0.00 | 56 | 975.1 |
| 20260509153359 | 18 | 23 | 8.0 | 9.7 | 0.00 | 0.00 | 0.00 | 56 | 975.2 |
| 20260509152856 | 18 | 34 | 6.4 | 9.7 | 0.00 | 0.00 | 0.00 | 57 | 975.1 |
| 20260509152352 | 18 | 18 | 6.4 | 6.4 | 0.00 | 0.00 | 0.00 | 57 | 975.1 |
| 20260509151849 | 18 | 12 | 6.4 | 6.4 | 0.00 | 0.00 | 0.00 | 57 | 975.0 |
| 20260509151345 | 18 | 2 | 14.5 | 17.7 | 0.00 | 0.00 | 0.00 | 57 | 975.1 |
| 20260509150844 | 18 | 6 | 9.7 | 14.5 | 0.00 | 0.00 | 0.00 | 58 | 975.1 |
| 20260509150341 | 18 | 18 | 8.0 | 9.7 | 0.00 | 0.00 | 0.00 | 58 | 975.2 |
| 20260509145839 | 18 | 9 | 11.3 | 14.5 | 0.00 | 0.00 | 0.00 | 55 | 975.1 |
| 20260509145338 | 18 | 23 | 11.3 | 12.9 | 0.00 | 0.00 | 0.00 | 56 | 975.2 |
| 20260509144835 | 18 | 3 | 6.4 | 9.7 | 0.00 | 0.00 | 0.00 | 58 | 975.2 |
| 20260509144332 | 18 | 29 | 11.3 | 11.3 | 0.00 | 0.00 | 0.00 | 56 | 975.0 |
| 20260509143829 | 18 | 43 | 4.8 | 6.4 | 0.00 | 0.00 | 0.00 | 54 | 975.0 |
| 20260509143327 | 18 | 41 | 8.0 | 9.7 | 0.00 | 0.00 | 0.00 | 54 | 974.8 |
| 20260509142822 | 18 | 37 | 11.3 | 12.9 | 0.00 | 0.00 | 0.00 | 55 | 974.9 |
| 20260509142319 | 18 | 51 | 11.3 | 12.9 | 0.00 | 0.00 | 0.00 | 57 | 974.9 |
| 20260509141814 | 18 | 19 | 8.0 | 11.3 | 0.00 | 0.00 | 0.00 | 57 | 974.8 |
| 20260509141312 | 18 | 358 | 9.7 | 11.3 | 0.00 | 0.00 | 0.00 | 57 | 975.0 |
| 20260509140808 | 18 | 72 | 6.4 | 6.4 | 0.00 | 0.00 | 0.00 | 55 | 975.2 |
| 20260509140305 | 17 | 34 | 9.7 | 11.3 | 0.00 | 0.00 | 0.00 | 58 | 975.4 |
| 20260509135803 | 17 | 67 | 3.2 | 4.8 | 0.00 | 0.00 | 0.00 | 60 | 975.7 |
| 20260509135300 | 17 | 25 | 6.4 | 9.7 | 0.00 | 0.00 | 0.00 | 60 | 975.8 |
| 20260509134758 | 16 | 60 | 8.0 | 11.3 | 0.00 | 0.00 | 0.00 | 63 | 975.9 |
| 20260509134255 | 16 | 55 | 6.4 | 6.4 | 0.00 | 0.00 | 0.00 | 63 | 975.9 |
| 20260509133752 | 16 | 356 | 6.4 | 6.4 | 0.00 | 0.00 | 0.00 | 63 | 976.0 |
| 20260509133248 | 16 | 43 | 6.4 | 11.3 | 0.00 | 0.00 | 0.00 | 64 | 976.1 |
| 20260509132747 | 15 | 34 | 3.2 | 4.8 | 0.00 | 0.00 | 0.00 | 64 | 976.0 |
| 20260509132246 | 15 | 76 | 1.6 | 3.2 | 0.00 | 0.00 | 0.00 | 64 | 976.2 |
| 20260509131742 | 15 | 73 | 4.8 | 6.4 | 0.00 | 0.00 | 0.00 | 64 | 976.2 |
| 20260509131238 | 15 | 21 | 3.2 | 4.8 | 0.00 | 0.00 | 0.00 | 65 | 976.1 |
| 20260509130735 | 15 | 61 | 4.8 | 6.4 | 0.00 | 0.00 | 0.00 | 65 | 976.2 |
| 20260509130230 | 15 | 36 | 1.6 | 1.6 | 0.00 | 0.00 | 0.00 | 66 | 976.3 |
| 20260509125727 | 15 | 64 | 4.8 | 6.4 | 0.00 | 0.00 | 0.00 | 66 | 976.2 |
| 20260509125224 | 15 | 352 | 0.0 | 0.0 | 0.00 | 0.00 | 0.00 | 67 | 976.4 |
| 20260509124720 | 15 | 334 | 0.0 | 1.6 | 0.00 | 0.00 | 0.00 | 67 | 976.2 |
| 20260509124217 | 14 | 338 | 0.0 | 0.0 | 0.00 | 0.00 | 0.00 | 66 | 976.3 |
| 20260509123715 | 14 | 323 | 0.0 | 1.6 | 0.00 | 0.00 | 0.00 | 67 | 976.2 |
| 20260509123212 | 13 | 349 | 3.2 | 4.8 | 0.00 | 0.00 | 0.00 | 67 | 976.1 |
| 20260509122708 | 13 | 346 | 0.0 | 1.6 | 0.00 | 0.00 | 0.00 | 68 | 976.2 |
| 20260509122205 | 13 | 171 | 0.0 | 0.0 | 0.00 | 0.00 | 0.00 | 74 | 976.2 |
| 20260509121701 | 12 | 171 | 0.0 | 0.0 | 0.00 | 0.00 | 0.00 | 74 | 976.1 |
| 20260509121159 | 12 | 171 | 1.6 | 1.6 | 0.00 | 0.00 | 0.00 | 78 | 976.2 |
| 20260509120657 | 12 | 171 | 1.6 | 1.6 | 0.00 | 0.00 | 0.00 | 77 | 976.3 |
| 20260509120155 | 12 | 171 | 0.0 | 0.0 | 0.00 | 0.00 | 0.00 | 76 | 976.5 |
| 20260509115652 | 11 | 171 | 0.0 | 0.0 | 0.00 | 0.00 | 0.00 | 79 | 976.4 |
| 20260509115149 | 11 | 171 | 0.0 | 1.6 | 0.00 | 0.00 | 0.00 | 76 | 976.3 |
| 20260509114648 | 11 | 171 | 1.6 | 1.6 | 0.00 | 0.00 | 0.00 | 79 | 976.3 |
| 20260509114146 | 11 | 159 | 0.0 | 0.0 | 0.00 | 0.00 | 0.00 | 77 | 976.4 |
| 20260509113644 | 11 | 159 | 0.0 | 0.0 | 0.00 | 0.00 | 0.00 | 77 | 976.2 |
| 20260509113141 | 11 | 89 | 0.0 | 0.0 | 0.00 | 0.00 | 0.00 | 76 | 976.3 |
| 20260509112638 | 11 | 90 | 1.6 | 3.2 | 0.00 | 0.00 | 0.00 | 77 | 976.3 |
| 20260509112135 | 11 | 88 | 0.0 | 0.0 | 0.00 | 0.00 | 0.00 | 76 | 976.4 |
| 20260509111632 | 11 | 88 | 0.0 | 0.0 | 0.00 | 0.00 | 0.00 | 76 | 976.3 |
| 20260509111129 | 11 | 89 | 1.6 | 1.6 | 0.00 | 0.00 | 0.00 | 73 | 976.4 |
| 20260509110626 | 11 | 65 | 0.0 | 1.6 | 0.00 | 0.00 | 0.00 | 71 | 976.4 |
| 20260509110123 | 11 | 65 | 1.6 | 1.6 | 0.00 | 0.00 | 0.00 | 71 | 976.2 |
| 20260509105621 | 11 | 65 | 0.0 | 1.6 | 0.00 | 0.00 | 0.00 | 71 | 976.1 |
| 20260509105119 | 11 | 65 | 0.0 | 0.0 | 0.00 | 0.00 | 0.00 | 71 | 976.3 |
| 20260509104615 | 11 | 65 | 0.0 | 0.0 | 0.00 | 0.00 | 0.00 | 71 | 976.0 |
| 20260509104112 | 11 | 65 | 0.0 | 0.0 | 0.00 | 0.00 | 0.00 | 70 | 976.2 |
| 20260509103610 | 11 | 65 | 0.0 | 0.0 | 0.00 | 0.00 | 0.00 | 70 | 976.2 |
| 20260509103108 | 11 | 66 | 1.6 | 1.6 | 0.00 | 0.00 | 0.00 | 70 | 976.1 |
| 20260509102605 | 11 | 33 | 0.0 | 0.0 | 0.00 | 0.00 | 0.00 | 70 | 976.2 |
| 20260509102102 | 11 | 33 | 0.0 | 0.0 | 0.00 | 0.00 | 0.00 | 67 | 976.3 |
| 20260509101558 | 11 | 33 | 0.0 | 0.0 | 0.00 | 0.00 | 0.00 | 67 | 976.2 |
| 20260509101055 | 12 | 33 | 0.0 | 0.0 | 0.00 | 0.00 | 0.00 | 64 | 976.2 |
| 20260509100552 | 11 | 40 | 1.6 | 1.6 | 0.00 | 0.00 | 0.00 | 64 | 976.0 |
| 20260509100049 | 11 | 27 | 1.6 | 1.6 | 0.00 | 0.00 | 0.00 | 64 | 976.3 |
| 20260509095545 | 11 | 22 | 0.0 | 0.0 | 0.00 | 0.00 | 0.00 | 66 | 976.4 |
| 20260509095044 | 11 | 15 | 1.6 | 1.6 | 0.00 | 0.00 | 0.00 | 64 | 976.3 |
| 20260509094539 | 11 | 28 | 1.6 | 1.6 | 0.00 | 0.00 | 0.00 | 64 | 976.3 |
| 20260509094037 | 11 | 24 | 3.2 | 3.2 | 0.00 | 0.00 | 0.00 | 65 | 976.4 |
| 20260509093535 | 11 | 42 | 1.6 | 1.6 | 0.00 | 0.00 | 0.00 | 64 | 976.3 |
| 20260509093032 | 12 | 32 | 1.6 | 1.6 | 0.00 | 0.00 | 0.00 | 63 | 976.4 |
| 20260509092530 | 11 | 49 | 1.6 | 3.2 | 0.00 | 0.00 | 0.00 | 63 | 976.5 |
| 20260509092028 | 12 | 62 | 1.6 | 1.6 | 0.00 | 0.00 | 0.00 | 61 | 976.4 |
| 20260509091525 | 11 | 58 | 1.6 | 3.2 | 0.00 | 0.00 | 0.00 | 61 | 976.3 |
| 20260509091022 | 11 | 47 | 1.6 | 1.6 | 0.00 | 0.00 | 0.00 | 64 | 976.4 |
| 20260509090519 | 12 | 38 | 3.2 | 3.2 | 0.00 | 0.00 | 0.00 | 61 | 976.5 |
| 20260509090017 | 12 | 44 | 1.6 | 1.6 | 0.00 | 0.00 | 0.00 | 60 | 976.7 |
| 20260509085514 | 12 | 56 | 1.6 | 1.6 | 0.00 | 0.00 | 0.00 | 59 | 976.5 |
| 20260509085010 | 12 | 56 | 1.6 | 1.6 | 0.00 | 0.00 | 0.00 | 59 | 976.5 |
| 20260509084507 | 12 | 56 | 1.6 | 3.2 | 0.00 | 0.00 | 0.00 | 57 | 976.5 |
| 20260509084004 | 12 | 56 | 1.6 | 1.6 | 0.00 | 0.00 | 0.00 | 58 | 976.4 |
| 20260509083501 | 12 | 45 | 3.2 | 3.2 | 0.00 | 0.00 | 0.00 | 56 | 976.6 |
| 20260509082957 | 12 | 81 | 3.2 | 4.8 | 0.00 | 0.00 | 0.00 | 58 | 976.5 |
| 20260509082455 | 12 | 40 | 0.0 | 1.6 | 0.00 | 0.00 | 0.00 | 60 | 976.6 |
| 20260509081952 | 12 | 18 | 3.2 | 3.2 | 0.00 | 0.00 | 0.00 | 57 | 976.6 |
| 20260509081449 | 12 | 18 | 1.6 | 3.2 | 0.00 | 0.00 | 0.00 | 58 | 976.5 |
| 20260509080946 | 12 | 27 | 0.0 | 0.0 | 0.00 | 0.00 | 0.00 | 56 | 976.7 |
| 20260509080445 | 12 | 27 | 0.0 | 1.6 | 0.00 | 0.00 | 0.00 | 57 | 976.5 |
| 20260509075942 | 12 | 30 | 0.0 | 0.0 | 0.00 | 0.00 | 0.00 | 59 | 976.8 |
| 20260509075439 | 12 | 27 | 0.0 | 1.6 | 0.00 | 0.00 | 0.00 | 60 | 976.7 |
| 20260509074937 | 13 | 23 | 0.0 | 1.6 | 0.00 | 0.00 | 0.00 | 57 | 976.7 |
| 20260509074434 | 12 | 28 | 6.4 | 6.4 | 0.00 | 0.00 | 0.00 | 55 | 976.5 |
| 20260509073930 | 12 | 19 | 1.6 | 3.2 | 0.00 | 0.00 | 0.00 | 58 | 976.9 |
| 20260509073427 | 12 | 16 | 3.2 | 3.2 | 0.00 | 0.00 | 0.00 | 57 | 977.0 |
| 20260509072923 | 13 | 23 | 0.0 | 0.0 | 0.00 | 0.00 | 0.00 | 58 | 977.0 |
| 20260509072420 | 13 | 21 | 1.6 | 3.2 | 0.00 | 0.00 | 0.00 | 55 | 976.9 |
| 20260509071917 | 13 | 13 | 1.6 | 1.6 | 0.00 | 0.00 | 0.00 | 56 | 977.0 |
| 20260509071414 | 13 | 21 | 3.2 | 4.8 | 0.00 | 0.00 | 0.00 | 57 | 977.1 |
| 20260509070912 | 13 | 19 | 0.0 | 0.0 | 0.00 | 0.00 | 0.00 | 55 | 977.0 |
| 20260509070408 | 14 | 95 | 3.2 | 3.2 | 0.00 | 0.00 | 0.00 | 51 | 977.1 |
| 20260509065903 | 13 | 87 | 4.8 | 6.4 | 0.00 | 0.00 | 0.00 | 52 | 977.2 |
| 20260509065400 | 13 | 83 | 3.2 | 3.2 | 0.00 | 0.00 | 0.00 | 53 | 977.2 |
| 20260509064856 | 12 | 23 | 1.6 | 3.2 | 0.00 | 0.00 | 0.00 | 58 | 977.2 |
| 20260509064354 | 12 | 14 | 3.2 | 4.8 | 0.00 | 0.00 | 0.00 | 59 | 977.0 |
| 20260509063851 | 12 | 37 | 4.8 | 6.4 | 0.00 | 0.00 | 0.00 | 57 | 977.2 |
| 20260509063347 | 12 | 23 | 1.6 | 3.2 | 0.00 | 0.00 | 0.00 | 61 | 977.2 |
| 20260509062845 | 12 | 33 | 3.2 | 3.2 | 0.00 | 0.00 | 0.00 | 60 | 977.5 |
| 20260509062342 | 12 | 5 | 6.4 | 6.4 | 0.00 | 0.00 | 0.00 | 58 | 977.3 |
| 20260509061839 | 13 | 28 | 3.2 | 3.2 | 0.00 | 0.00 | 0.00 | 54 | 977.4 |
| 20260509061337 | 14 | 64 | 4.8 | 9.7 | 0.00 | 0.00 | 0.00 | 50 | 977.3 |
| 20260509060834 | 14 | 105 | 6.4 | 9.7 | 0.00 | 0.00 | 0.00 | 49 | 977.3 |
| 20260509060331 | 14 | 94 | 8.0 | 11.3 | 0.00 | 0.00 | 0.00 | 51 | 977.5 |
| 20260509055826 | 14 | 35 | 0.0 | 1.6 | 0.00 | 0.00 | 0.00 | 52 | 977.5 |
| 20260509055321 | 12 | 212 | 4.8 | 6.4 | 0.00 | 0.00 | 0.00 | 59 | 977.7 |